Weather History for Homer, AK

Change the Weather History Date:

Friday, July 19, 2013

  Actual Average Record
Temperature  
Mean Temperature 58 °F -  
Max Temperature 62 °F 61 °F 75 °F (1936)
Min Temperature 53 °F 49 °F 38 °F (1952)
Degree Days  
Heating Degree Days 7    
Growing Degree Days 8 (Base 50)    
Moisture  
Dew Point 49 °F    
Average Humidity 72    
Maximum Humidity 83    
Minimum Humidity 63    
Precipitation  
Precipitation 0.00 in - - ()
Sea Level Pressure  
Sea Level Pressure 30.25 in    
Wind  
Wind Speed 10 mph (WSW)    
Max Wind Speed 18 mph    
Max Gust Speed 26 mph    
Visibility 10 miles    
Events      
Averages and records for this station are not official NWS values.
T = Trace of Precipitation, MM = Missing Value Source: NWS Daily Summary

Daily Weather History Graph

Daily Weather History Graph

Search for Another Location

Airport:

Trip Planner

Search our weather history database for the weather conditions in past years. The results will help you decide how hot, cold, wet, or windy it might be!

Date:

Astronomy

Jul. 19, 2013 Rise Set
Actual Time 5:21 AM AKDT 11:01 PM AKDT
Civil Twilight 4:11 AM AKDT 12:10 AM AKDT
Nautical Twilight 2:44 AM AKDT 1:39 AM AKDT
Astronomical Twilight Sun does not rise Sun does not rise
Moon 8:11 PM AKDT (7/19) 2:18 AM AKDT (7/19)
Length of Visible Light 19h 59m
Length of Day
17h 39m
Waxing Gibbous, 88% of the Moon is Illuminated
Jul 19
Waxing Gibbous
Jul 22
Full
Jul 29
Last Quarter
Aug 6
New
Aug 14
First Quarter

Hourly Weather History & Observations

Time (AKDT) Temp. Dew Point Humidity Pressure Visibility Wind Dir Wind Speed Gust Speed Precip Events Conditions
12:53 AM 60.1 °F 53.1 °F 78% 30.23 in 10.0 mi WSW 18.4 mph 26.5 mph N/A   Clear
1:53 AM 57.0 °F 52.0 °F 83% 30.24 in 10.0 mi NW 8.1 mph - N/A   Scattered Clouds
2:53 AM 57.9 °F 50.0 °F 75% 30.24 in 10.0 mi Variable 6.9 mph - N/A   Partly Cloudy
3:53 AM 57.0 °F 50.0 °F 77% 30.24 in 10.0 mi WSW 9.2 mph - N/A   Clear
4:53 AM 55.9 °F 50.0 °F 80% 30.25 in 10.0 mi WSW 5.8 mph - N/A   Clear
5:53 AM 55.9 °F 48.9 °F 77% 30.25 in 10.0 mi WNW 3.5 mph - N/A   Clear
6:53 AM 55.9 °F 50.0 °F 80% 30.25 in 10.0 mi West 4.6 mph - N/A   Clear
7:53 AM 57.9 °F 50.0 °F 75% 30.26 in 10.0 mi West 8.1 mph 19.6 mph N/A   Clear
8:53 AM 57.9 °F 48.9 °F 72% 30.26 in 10.0 mi WSW 10.4 mph - N/A   Clear
9:53 AM 59.0 °F 48.9 °F 69% 30.27 in 10.0 mi WSW 16.1 mph 21.9 mph N/A   Clear
10:53 AM 57.9 °F 48.9 °F 72% 30.28 in 10.0 mi WSW 10.4 mph - N/A   Mostly Cloudy
11:53 AM 60.1 °F 48.9 °F 67% 30.28 in 10.0 mi WSW 10.4 mph 19.6 mph N/A   Overcast
12:06 PM 60.8 °F 48.2 °F 63% 30.28 in 10.0 mi West 9.2 mph 18.4 mph N/A   Mostly Cloudy
12:53 PM 59.0 °F 48.0 °F 67% 30.28 in 10.0 mi West 8.1 mph 16.1 mph N/A   Mostly Cloudy
1:53 PM 60.1 °F 48.0 °F 64% 30.27 in 10.0 mi West 11.5 mph - N/A   Clear
2:53 PM 60.1 °F 48.0 °F 64% 30.27 in 10.0 mi West 10.4 mph - N/A   Scattered Clouds
3:53 PM 60.1 °F 48.9 °F 67% 30.26 in 10.0 mi WSW 13.8 mph 21.9 mph N/A   Scattered Clouds
4:53 PM 60.1 °F 48.9 °F 67% 30.26 in 10.0 mi WSW 11.5 mph - N/A   Clear
5:53 PM 61.0 °F 48.9 °F 64% 30.25 in 10.0 mi WSW 12.7 mph - N/A   Scattered Clouds
6:53 PM 60.1 °F 48.9 °F 67% 30.24 in 10.0 mi WSW 10.4 mph - N/A   Mostly Cloudy
7:53 PM 57.9 °F 48.9 °F 72% 30.23 in 10.0 mi SW 9.2 mph - N/A   Scattered Clouds
8:53 PM 59.0 °F 48.9 °F 69% 30.22 in 10.0 mi WSW 6.9 mph - N/A   Mostly Cloudy
9:53 PM 57.9 °F 48.9 °F 72% 30.22 in 10.0 mi West 3.5 mph - N/A   Clear
10:53 PM 57.0 °F 48.9 °F 74% 30.22 in 10.0 mi Calm Calm - N/A   Clear
11:53 PM 53.1 °F 48.0 °F 83% 30.22 in 10.0 mi Calm Calm - N/A   Clear